Webcam

Mit webcam er opstillet i Qinngorput og har retning mod den sydlige del af Nuuk. Billedet opdateres automatisk.

BGGH 220050Z AUTO 02004KT 9999NDV NCD M01/M06 Q1025